Other Surface Observations
Issued by NWS Jacksonville, FL

Home | Current Version | Previous Version | Text Only | Print | Product List | Glossary On
Versions: 1 2 3 4 5 6 7 8 9 10 11 12 13 14 15 16 17 18 19 20 21 22 23 24 25 26 27 28 29 30 31 32 33 34 35 36 37 38 39 40 41 42 43 44 45 46 47 48 49 50
000
SXUS52 KJAX 171412
OSOJAX
OTHER SURFACE OBSERVATIONS
NATIONAL WEATHER SERVICE JACKSONVILLE FL
900 AM EST TUE JAN 17 2017

FLZ020>025-030>033-035>038-040-171500-
...FLORIDA...

CITY           SKY/WX    TMP DP  RH WIND       PRES   REMARKS
CECIL FIELD    FOG       54  54 100 CALM      30.26S VSB 1/4
HERLONG FIELD  NOT AVBL
FERNANDINA BCH NOT AVBL
LAKE CITY      FAIR      59  59 100 CALM      30.26R
JUNIPER SPGS   NOT AVBL
BUNNELL        NOT AVBL
KEYSTONE HGTS  FAIR      63  63 100 SE3       30.27R
$$

GAZ132>136-149>154-162>166-171500-
...GEORGIA...

CITY           SKY/WX    TMP DP  RH WIND       PRES   REMARKS
JESUP          FOG       59  55  88 CALM      30.28R VSB<1/4
HOMERVILLE     FAIR      59  59 100 SE5       30.26S
SWAINSBORO     CLOUDY    59  59 100 S3        30.27S FOG
CORDELE        NOT AVBL
EASTMAN        FOG       56  54  93 SE3       30.28R VSB 1/4
$$

PLEASE NOTE:  THESE OBSERVATIONS ARE NOT QUALITY CONTROLLED AND MAY
NOT BE AVAILABLE AT ALL TIMES.
$$



USA.gov is the U.S. government's official web portal to all federal, state and local government web resources and services.